Time,TemperatureF,DewpointF,PressureIn,WindDirection,WindDirectionDegrees,WindSpeedMPH,WindSpeedGustMPH,Humidity,HourlyPrecipIn,Conditions,Clouds,dailyrainin,SoftwareType,DateUTC
2013-01-13 00:00:00,63.4,58.8,30.07,SW,216,0.0,2.0,85,0.00,,---,0.00,VWS V14.00,2013-01-13 05:00:00,
2013-01-13 00:01:00,63.4,58.8,30.07,SW,216,0.0,2.0,85,0.00,,---,0.00,VWS V14.00,2013-01-13 05:01:00,
2013-01-13 00:02:00,63.3,58.7,30.07,SW,216,0.0,2.0,85,0.00,,---,0.00,VWS V14.00,2013-01-13 05:02:00,
2013-01-13 00:07:00,63.2,59.0,30.07,SW,215,1.0,4.0,86,0.00,,---,0.00,VWS V14.00,2013-01-13 05:07:00,
2013-01-13 00:12:00,63.2,59.0,30.07,SW,216,0.0,4.0,86,0.00,,---,0.00,VWS V14.00,2013-01-13 05:12:00,
2013-01-13 00:17:00,63.2,59.0,30.08,SW,215,1.0,4.0,86,0.00,,---,0.00,VWS V14.00,2013-01-13 05:17:00,
2013-01-13 00:22:00,63.2,59.0,30.07,SW,215,2.0,4.0,86,0.00,,---,0.00,VWS V14.00,2013-01-13 05:22:00,
2013-01-13 00:27:00,63.2,59.0,30.07,SW,215,2.0,4.0,86,0.00,,---,0.00,VWS V14.00,2013-01-13 05:27:00,
2013-01-13 00:32:00,63.2,59.0,30.07,SW,215,0.0,4.0,86,0.00,,---,0.00,VWS V14.00,2013-01-13 05:32:00,
2013-01-13 00:37:00,63.2,59.0,30.07,SW,215,1.0,4.0,86,0.00,,---,0.00,VWS V14.00,2013-01-13 05:37:00,
2013-01-13 00:42:00,63.1,59.2,30.07,SW,215,0.0,4.0,87,0.00,,---,0.00,VWS V14.00,2013-01-13 05:42:00,
2013-01-13 00:47:00,63.1,59.2,30.07,SW,215,1.0,4.0,87,0.00,,---,0.00,VWS V14.00,2013-01-13 05:47:00,
2013-01-13 00:52:00,63.0,59.1,30.07,SSW,211,1.0,4.0,87,0.00,,---,0.00,VWS V14.00,2013-01-13 05:52:00,
2013-01-13 00:57:00,62.9,59.0,30.07,SSW,210,2.0,4.0,87,0.00,,---,0.00,VWS V14.00,2013-01-13 05:57:00,
2013-01-13 01:02:00,62.9,59.0,30.07,SSW,209,0.0,4.0,87,0.00,,---,0.00,VWS V14.00,2013-01-13 06:02:00,
2013-01-13 01:07:00,62.9,59.0,30.07,SSW,209,2.0,4.0,87,0.00,,---,0.00,VWS V14.00,2013-01-13 06:07:00,
2013-01-13 01:12:00,62.8,58.9,30.07,SSW,209,2.0,4.0,87,0.00,,---,0.00,VWS V14.00,2013-01-13 06:12:00,
2013-01-13 01:17:00,62.8,58.9,30.07,SSW,207,1.0,5.0,87,0.00,,---,0.00,VWS V14.00,2013-01-13 06:17:00,
2013-01-13 01:22:00,62.7,58.8,30.07,SSW,207,0.0,5.0,87,0.00,,---,0.00,VWS V14.00,2013-01-13 06:22:00,
2013-01-13 01:27:00,62.7,58.8,30.07,SSW,207,1.0,5.0,87,0.00,,---,0.00,VWS V14.00,2013-01-13 06:27:00,
2013-01-13 01:32:00,62.6,58.4,30.07,SSW,207,0.0,2.0,86,0.00,,---,0.00,VWS V14.00,2013-01-13 06:32:00,
2013-01-13 01:37:00,62.5,58.3,30.07,SSW,207,0.0,3.0,86,0.00,,---,0.00,VWS V14.00,2013-01-13 06:37:00,
2013-01-13 01:42:00,62.4,58.2,30.07,SSW,208,0.0,4.0,86,0.00,,---,0.00,VWS V14.00,2013-01-13 06:42:00,
2013-01-13 01:47:00,62.3,58.1,30.07,SSW,208,0.0,4.0,86,0.00,,---,0.00,VWS V14.00,2013-01-13 06:47:00,
2013-01-13 01:52:00,62.2,58.0,30.07,SSW,208,0.0,4.0,86,0.00,,---,0.00,VWS V14.00,2013-01-13 06:52:00,
2013-01-13 01:57:00,62.2,58.0,30.07,SSW,208,1.0,4.0,86,0.00,,---,0.00,VWS V14.00,2013-01-13 06:57:00,
2013-01-13 02:02:00,62.1,57.9,30.06,SSW,208,0.0,4.0,86,0.00,,---,0.00,VWS V14.00,2013-01-13 07:02:00,
2013-01-13 02:07:00,62.1,57.9,30.07,SSW,208,0.0,4.0,86,0.00,,---,0.00,VWS V14.00,2013-01-13 07:07:00,
2013-01-13 02:12:00,62.0,57.8,30.07,SSW,208,1.0,4.0,86,0.00,,---,0.00,VWS V14.00,2013-01-13 07:12:00,
2013-01-13 02:17:00,62.0,57.8,30.07,SSW,208,0.0,4.0,86,0.00,,---,0.00,VWS V14.00,2013-01-13 07:17:00,
2013-01-13 02:22:00,61.9,57.7,30.07,SSW,206,3.0,4.0,86,0.00,,---,0.00,VWS V14.00,2013-01-13 07:22:00,
2013-01-13 02:27:00,61.9,57.7,30.07,SSW,205,1.0,4.0,86,0.00,,---,0.00,VWS V14.00,2013-01-13 07:27:00,
2013-01-13 02:32:00,61.9,57.7,30.07,SSW,205,0.0,4.0,86,0.00,,---,0.00,VWS V14.00,2013-01-13 07:32:00,
2013-01-13 02:37:00,61.8,57.6,30.07,SSW,205,0.0,4.0,86,0.00,,---,0.00,VWS V14.00,2013-01-13 07:37:00,
2013-01-13 02:42:00,61.6,57.4,30.07,SSW,205,0.0,4.0,86,0.00,,---,0.00,VWS V14.00,2013-01-13 07:42:00,
2013-01-13 02:47:00,61.4,57.5,30.07,SSW,205,2.0,4.0,87,0.00,,---,0.00,VWS V14.00,2013-01-13 07:47:00,
2013-01-13 02:52:00,61.3,57.4,30.07,SSW,205,1.0,4.0,87,0.00,,---,0.00,VWS V14.00,2013-01-13 07:52:00,
2013-01-13 02:57:00,61.1,57.2,30.07,SSW,205,0.0,4.0,87,0.00,,---,0.00,VWS V14.00,2013-01-13 07:57:00,
2013-01-13 03:02:00,61.0,57.4,30.07,SSW,205,0.0,4.0,88,0.00,,---,0.00,VWS V14.00,2013-01-13 08:02:00,
2013-01-13 03:07:00,61.0,57.4,30.07,SSW,205,0.0,4.0,88,0.00,,---,0.00,VWS V14.00,2013-01-13 08:07:00,
2013-01-13 03:12:00,60.9,57.3,30.07,SSW,205,0.0,4.0,88,0.00,,---,0.00,VWS V14.00,2013-01-13 08:12:00,
2013-01-13 03:17:00,60.8,57.5,30.07,SSW,205,0.0,4.0,89,0.00,,---,0.00,VWS V14.00,2013-01-13 08:17:00,
2013-01-13 03:22:00,60.8,57.2,30.07,SSW,205,0.0,4.0,88,0.00,,---,0.00,VWS V14.00,2013-01-13 08:22:00,
2013-01-13 03:27:00,60.7,57.1,30.07,SSW,205,2.0,4.0,88,0.00,,---,0.00,VWS V14.00,2013-01-13 08:27:00,
2013-01-13 03:32:00,60.6,57.0,30.08,SSW,205,0.0,2.0,88,0.00,,---,0.00,VWS V14.00,2013-01-13 08:32:00,
2013-01-13 03:37:00,60.5,57.2,30.07,SSW,205,0.0,2.0,89,0.00,,---,0.00,VWS V14.00,2013-01-13 08:37:00,
2013-01-13 03:42:00,60.5,57.2,30.08,SSW,205,0.0,2.0,89,0.00,,---,0.00,VWS V14.00,2013-01-13 08:42:00,
2013-01-13 03:47:00,60.4,57.2,30.08,SSW,205,1.0,2.0,89,0.00,,---,0.00,VWS V14.00,2013-01-13 08:47:00,
2013-01-13 03:52:00,60.4,57.2,30.08,SSW,205,0.0,2.0,89,0.00,,---,0.00,VWS V14.00,2013-01-13 08:52:00,
2013-01-13 03:57:00,60.3,57.0,30.08,SSW,205,0.0,2.0,89,0.00,,---,0.00,VWS V14.00,2013-01-13 08:57:00,
2013-01-13 04:02:00,60.4,57.5,30.08,SSW,205,0.0,4.0,90,0.00,,---,0.00,VWS V14.00,2013-01-13 09:02:00,
2013-01-13 04:07:00,60.5,57.6,30.07,SSW,205,0.0,4.0,90,0.00,,---,0.00,VWS V14.00,2013-01-13 09:07:00,
2013-01-13 04:12:00,60.7,57.8,30.07,SSW,201,0.0,4.0,90,0.00,,---,0.00,VWS V14.00,2013-01-13 09:12:00,
2013-01-13 04:17:00,60.9,58.0,30.07,SSW,201,0.0,4.0,90,0.00,,---,0.00,VWS V14.00,2013-01-13 09:17:00,
2013-01-13 04:22:00,61.0,57.7,30.06,SSW,201,1.0,4.0,89,0.00,,---,0.00,VWS V14.00,2013-01-13 09:22:00,
2013-01-13 04:27:00,61.0,57.7,30.06,SSW,201,0.0,4.0,89,0.00,,---,0.00,VWS V14.00,2013-01-13 09:27:00,
2013-01-13 04:32:00,60.9,57.6,30.06,SSW,201,2.0,4.0,89,0.00,,---,0.00,VWS V14.00,2013-01-13 09:32:00,
2013-01-13 04:37:00,60.9,57.6,30.06,SSW,196,2.0,6.0,89,0.00,,---,0.00,VWS V14.00,2013-01-13 09:37:00,
2013-01-13 04:42:00,60.9,58.0,30.06,SSW,199,4.0,6.0,90,0.00,,---,0.00,VWS V14.00,2013-01-13 09:42:00,
2013-01-13 04:47:00,60.9,58.0,30.06,SSW,199,0.0,6.0,90,0.00,,---,0.00,VWS V14.00,2013-01-13 09:47:00,
2013-01-13 04:52:00,60.9,58.0,30.06,SSW,199,1.0,6.0,90,0.00,,---,0.00,VWS V14.00,2013-01-13 09:52:00,
2013-01-13 04:57:00,60.9,58.0,30.06,SSW,200,2.0,6.0,90,0.00,,---,0.00,VWS V14.00,2013-01-13 09:57:00,
2013-01-13 05:02:00,61.0,58.0,30.06,SSW,200,2.0,3.0,90,0.00,,---,0.00,VWS V14.00,2013-01-13 10:02:00,
2013-01-13 05:07:00,61.0,58.0,30.06,SSW,200,0.0,3.0,90,0.00,,---,0.00,VWS V14.00,2013-01-13 10:07:00,
2013-01-13 05:12:00,61.1,58.2,30.06,SSW,200,0.0,3.0,90,0.00,,---,0.00,VWS V14.00,2013-01-13 10:12:00,
2013-01-13 05:17:00,61.1,58.2,30.06,SSW,198,1.0,4.0,90,0.00,,---,0.00,VWS V14.00,2013-01-13 10:17:00,
2013-01-13 05:22:00,61.1,58.2,30.05,SSW,198,2.0,4.0,90,0.00,,---,0.00,VWS V14.00,2013-01-13 10:22:00,
2013-01-13 05:27:00,61.2,58.9,30.06,SSW,198,1.0,4.0,92,0.00,,---,0.00,VWS V14.00,2013-01-13 10:27:00,
2013-01-13 05:32:00,61.1,58.2,30.05,SSW,198,2.0,3.0,90,0.00,,---,0.00,VWS V14.00,2013-01-13 10:32:00,
2013-01-13 05:37:00,61.1,58.2,30.06,SSW,209,0.0,5.0,90,0.00,,---,0.00,VWS V14.00,2013-01-13 10:37:00,
2013-01-13 05:42:00,61.0,58.0,30.06,SSW,209,0.0,5.0,90,0.00,,---,0.00,VWS V14.00,2013-01-13 10:42:00,
2013-01-13 05:47:00,60.9,58.0,30.06,SSW,209,0.0,5.0,90,0.00,,---,0.00,VWS V14.00,2013-01-13 10:47:00,
2013-01-13 05:52:00,60.8,57.8,30.06,SSW,209,0.0,5.0,90,0.00,,---,0.00,VWS V14.00,2013-01-13 10:52:00,
2013-01-13 05:57:00,60.7,58.1,30.07,SSW,209,0.0,5.0,91,0.00,,---,0.00,VWS V14.00,2013-01-13 10:57:00,
2013-01-13 06:02:00,60.6,58.0,30.06,SSW,209,2.0,2.0,91,0.00,,---,0.00,VWS V14.00,2013-01-13 11:02:00,
2013-01-13 06:07:00,60.5,57.6,30.07,SSW,209,0.0,2.0,90,0.00,,---,0.00,VWS V14.00,2013-01-13 11:07:00,
2013-01-13 06:12:00,60.4,57.8,30.07,SSW,209,0.0,2.0,91,0.00,,---,0.00,VWS V14.00,2013-01-13 11:12:00,
2013-01-13 06:17:00,60.3,57.7,30.07,SSW,209,0.0,2.0,91,0.00,,---,0.00,VWS V14.00,2013-01-13 11:17:00,
2013-01-13 06:22:00,60.2,57.9,30.07,SSW,209,1.0,2.0,92,0.00,,---,0.00,VWS V14.00,2013-01-13 11:22:00,
2013-01-13 06:27:00,60.2,57.9,30.07,SSW,209,0.0,2.0,92,0.00,,---,0.00,VWS V14.00,2013-01-13 11:27:00,
2013-01-13 06:32:00,60.2,57.9,30.07,SSW,209,0.0,2.0,92,0.00,,---,0.00,VWS V14.00,2013-01-13 11:32:00,
2013-01-13 06:37:00,60.2,57.9,30.08,SSW,209,0.0,3.0,92,0.00,,---,0.00,VWS V14.00,2013-01-13 11:37:00,
2013-01-13 06:42:00,60.2,57.9,30.08,SSW,209,0.0,3.0,92,0.00,,---,0.00,VWS V14.00,2013-01-13 11:42:00,
2013-01-13 06:47:00,60.2,57.9,30.08,SSW,209,0.0,3.0,92,0.00,,---,0.00,VWS V14.00,2013-01-13 11:47:00,
2013-01-13 06:52:00,60.3,58.0,30.09,SSW,209,0.0,3.0,92,0.00,,---,0.00,VWS V14.00,2013-01-13 11:52:00,
2013-01-13 06:57:00,60.4,58.1,30.09,SSW,209,0.0,3.0,92,0.00,,---,0.00,VWS V14.00,2013-01-13 11:57:00,
2013-01-13 07:02:00,60.4,58.4,30.09,SSW,192,4.0,7.0,93,0.00,,---,0.00,VWS V14.00,2013-01-13 12:02:00,
2013-01-13 07:07:00,60.6,58.6,30.09,SSW,199,0.0,7.0,93,0.00,,---,0.00,VWS V14.00,2013-01-13 12:07:00,
2013-01-13 07:12:00,60.7,58.4,30.09,SSW,200,0.0,7.0,92,0.00,,---,0.00,VWS V14.00,2013-01-13 12:12:00,
2013-01-13 07:17:00,60.7,58.4,30.09,SSW,212,1.0,7.0,92,0.00,,---,0.00,VWS V14.00,2013-01-13 12:17:00,
2013-01-13 07:22:00,60.8,58.5,30.09,SSW,212,0.0,7.0,92,0.00,,---,0.00,VWS V14.00,2013-01-13 12:22:00,
2013-01-13 07:27:00,60.9,58.6,30.09,SSW,211,1.0,7.0,92,0.00,,---,0.00,VWS V14.00,2013-01-13 12:27:00,
2013-01-13 07:32:00,61.0,58.7,30.10,SSW,208,0.0,4.0,92,0.00,,---,0.00,VWS V14.00,2013-01-13 12:32:00,
2013-01-13 07:37:00,61.0,58.7,30.10,SSW,208,0.0,4.0,92,0.00,,---,0.00,VWS V14.00,2013-01-13 12:37:00,
2013-01-13 07:42:00,61.1,58.8,30.10,SSW,208,0.0,4.0,92,0.00,,---,0.00,VWS V14.00,2013-01-13 12:42:00,
2013-01-13 07:47:00,61.2,58.9,30.10,SW,234,1.0,5.0,92,0.00,,---,0.00,VWS V14.00,2013-01-13 12:47:00,
2013-01-13 07:52:00,61.3,59.0,30.11,SW,235,0.0,5.0,92,0.00,,---,0.00,VWS V14.00,2013-01-13 12:52:00,
2013-01-13 07:57:00,61.5,59.2,30.11,SW,227,2.0,5.0,92,0.00,,---,0.00,VWS V14.00,2013-01-13 12:57:00,
2013-01-13 08:02:00,61.6,59.3,30.11,SW,227,0.0,3.0,92,0.00,,---,0.00,VWS V14.00,2013-01-13 13:02:00,
2013-01-13 08:07:00,61.8,59.5,30.11,SW,229,0.0,3.0,92,0.00,,---,0.00,VWS V14.00,2013-01-13 13:07:00,
2013-01-13 08:12:00,61.8,59.5,30.11,SW,229,0.0,3.0,92,0.00,,---,0.00,VWS V14.00,2013-01-13 13:12:00,
2013-01-13 08:17:00,61.9,59.2,30.11,SW,228,1.0,3.0,91,0.00,,---,0.00,VWS V14.00,2013-01-13 13:17:00,
2013-01-13 08:22:00,62.0,59.3,30.11,SW,228,1.0,3.0,91,0.00,,---,0.00,VWS V14.00,2013-01-13 13:22:00,
2013-01-13 08:27:00,62.0,59.3,30.12,SW,229,2.0,4.0,91,0.00,,---,0.00,VWS V14.00,2013-01-13 13:27:00,
2013-01-13 08:32:00,62.0,59.3,30.12,SW,225,2.0,5.0,91,0.00,,---,0.00,VWS V14.00,2013-01-13 13:32:00,
2013-01-13 08:37:00,62.1,59.5,30.12,SW,225,0.0,5.0,91,0.00,,---,0.00,VWS V14.00,2013-01-13 13:37:00,
2013-01-13 08:42:00,62.0,59.3,30.12,SW,225,1.0,5.0,91,0.00,,---,0.00,VWS V14.00,2013-01-13 13:42:00,
2013-01-13 08:47:00,62.2,59.8,30.12,SW,223,2.0,5.0,92,0.00,,---,0.00,VWS V14.00,2013-01-13 13:47:00,
2013-01-13 08:52:00,62.3,60.0,30.12,WSW,252,3.0,5.0,92,0.00,,---,0.00,VWS V14.00,2013-01-13 13:52:00,
2013-01-13 08:57:00,62.4,60.0,30.12,SW,217,1.0,7.0,92,0.00,,---,0.00,VWS V14.00,2013-01-13 13:57:00,
2013-01-13 09:02:00,62.6,59.9,30.12,WSW,256,2.0,3.0,91,0.00,,---,0.00,VWS V14.00,2013-01-13 14:02:00,
2013-01-13 09:07:00,62.7,60.0,30.12,WSW,251,0.0,4.0,91,0.00,,---,0.00,VWS V14.00,2013-01-13 14:07:00,
2013-01-13 09:12:00,62.9,60.2,30.12,WSW,255,4.0,4.0,91,0.00,,---,0.00,VWS V14.00,2013-01-13 14:12:00,
2013-01-13 09:17:00,63.1,60.4,30.12,SW,230,1.0,5.0,91,0.00,,---,0.00,VWS V14.00,2013-01-13 14:17:00,
2013-01-13 09:22:00,63.4,60.7,30.11,SSW,209,2.0,6.0,91,0.00,,---,0.00,VWS V14.00,2013-01-13 14:22:00,
2013-01-13 09:27:00,63.5,60.5,30.12,SW,225,2.0,6.0,90,0.00,,---,0.00,VWS V14.00,2013-01-13 14:27:00,
2013-01-13 09:32:00,63.8,60.8,30.12,SSW,207,3.0,5.0,90,0.00,,---,0.00,VWS V14.00,2013-01-13 14:32:00,
2013-01-13 09:37:00,64.2,61.2,30.12,SW,225,1.0,5.0,90,0.00,,---,0.00,VWS V14.00,2013-01-13 14:37:00,
2013-01-13 09:42:00,64.7,61.4,30.12,SW,234,6.0,10.0,89,0.00,,---,0.00,VWS V14.00,2013-01-13 14:42:00,
2013-01-13 09:47:00,65.2,61.6,30.12,SSW,202,2.0,10.0,88,0.00,,---,0.00,VWS V14.00,2013-01-13 14:47:00,
2013-01-13 09:52:00,65.7,61.7,30.12,WSW,247,3.0,10.0,87,0.00,,---,0.00,VWS V14.00,2013-01-13 14:52:00,
2013-01-13 09:57:00,66.1,61.8,30.12,SSW,213,0.0,10.0,86,0.00,,---,0.00,VWS V14.00,2013-01-13 14:57:00,
2013-01-13 10:02:00,66.5,61.9,30.13,SW,226,4.0,10.0,85,0.00,,---,0.00,VWS V14.00,2013-01-13 15:02:00,
2013-01-13 10:07:00,67.0,62.0,30.13,WSW,239,1.0,10.0,84,0.00,,---,0.00,VWS V14.00,2013-01-13 15:07:00,
2013-01-13 10:12:00,67.6,62.3,30.13,SW,227,4.0,10.0,83,0.00,,---,0.00,VWS V14.00,2013-01-13 15:12:00,
2013-01-13 10:17:00,68.2,62.5,30.13,WSW,254,4.0,10.0,82,0.00,,---,0.00,VWS V14.00,2013-01-13 15:17:00,
2013-01-13 10:22:00,68.6,62.2,30.13,WSW,240,5.0,10.0,80,0.00,,---,0.00,VWS V14.00,2013-01-13 15:22:00,
2013-01-13 10:27:00,69.0,61.9,30.13,WSW,246,2.0,12.0,78,0.00,,---,0.00,VWS V14.00,2013-01-13 15:27:00,
2013-01-13 10:32:00,69.2,62.1,30.13,WSW,238,2.0,10.0,78,0.00,,---,0.00,VWS V14.00,2013-01-13 15:32:00,
2013-01-13 10:37:00,69.4,61.9,30.12,WSW,255,3.0,13.0,77,0.00,,---,0.00,VWS V14.00,2013-01-13 15:37:00,
2013-01-13 10:42:00,69.7,62.2,30.12,SW,225,3.0,13.0,77,0.00,,---,0.00,VWS V14.00,2013-01-13 15:42:00,
2013-01-13 10:47:00,69.8,61.9,30.12,WSW,252,3.0,13.0,76,0.00,,---,0.00,VWS V14.00,2013-01-13 15:47:00,
2013-01-13 10:52:00,70.0,62.1,30.12,SSW,213,5.0,13.0,76,0.00,,---,0.00,VWS V14.00,2013-01-13 15:52:00,
2013-01-13 10:57:00,70.2,61.9,30.12,SW,232,2.0,13.0,75,0.00,,---,0.00,VWS V14.00,2013-01-13 15:57:00,
2013-01-13 11:02:00,70.5,61.8,30.11,SW,230,1.0,7.0,74,0.00,,---,0.00,VWS V14.00,2013-01-13 16:02:00,
2013-01-13 11:07:00,71.1,62.0,30.11,SSW,213,2.0,11.0,73,0.00,,---,0.00,VWS V14.00,2013-01-13 16:07:00,
2013-01-13 11:12:00,71.7,62.2,30.11,SSW,212,3.0,11.0,72,0.00,,---,0.00,VWS V14.00,2013-01-13 16:12:00,
2013-01-13 11:17:00,72.2,62.3,30.10,SW,222,9.0,12.0,71,0.00,,---,0.00,VWS V14.00,2013-01-13 16:17:00,
2013-01-13 11:22:00,72.3,62.0,30.11,West,265,4.0,12.0,70,0.00,,---,0.00,VWS V14.00,2013-01-13 16:22:00,
2013-01-13 11:27:00,72.4,62.1,30.10,SW,227,1.0,12.0,70,0.00,,---,0.00,VWS V14.00,2013-01-13 16:27:00,
2013-01-13 11:32:00,72.8,62.5,30.10,WSW,249,2.0,5.0,70,0.00,,---,0.00,VWS V14.00,2013-01-13 16:32:00,
2013-01-13 11:37:00,73.3,62.9,30.10,SSW,208,5.0,5.0,70,0.00,,---,0.00,VWS V14.00,2013-01-13 16:37:00,
2013-01-13 11:42:00,73.5,62.7,30.10,SW,223,3.0,8.0,69,0.00,,---,0.00,VWS V14.00,2013-01-13 16:42:00,
2013-01-13 11:47:00,73.8,62.6,30.09,SSW,195,0.0,8.0,68,0.00,,---,0.00,VWS V14.00,2013-01-13 16:47:00,
2013-01-13 11:52:00,74.1,62.9,30.08,WSW,240,4.0,9.0,68,0.00,,---,0.00,VWS V14.00,2013-01-13 16:52:00,
2013-01-13 11:57:00,74.1,62.9,30.09,WSW,240,3.0,9.0,68,0.00,,---,0.00,VWS V14.00,2013-01-13 16:57:00,
2013-01-13 12:02:00,74.1,62.9,30.09,SSW,212,4.0,10.0,68,0.00,,---,0.00,VWS V14.00,2013-01-13 17:02:00,
2013-01-13 12:07:00,73.9,63.1,30.08,WSW,247,2.0,10.0,69,0.00,,---,0.00,VWS V14.00,2013-01-13 17:07:00,
2013-01-13 12:11:00,73.8,63.0,30.08,WSW,244,2.0,10.0,69,0.00,,---,0.00,VWS V14.00,2013-01-13 17:11:00,
2013-01-13 12:17:00,73.7,62.9,30.07,WNW,292,1.0,10.0,69,0.00,,---,0.00,VWS V14.00,2013-01-13 17:17:00,
2013-01-13 12:21:00,73.7,62.9,30.07,SW,227,3.0,10.0,69,0.00,,---,0.00,VWS V14.00,2013-01-13 17:21:00,
2013-01-13 12:27:00,73.5,62.7,30.07,SW,215,3.0,10.0,69,0.00,,---,0.00,VWS V14.00,2013-01-13 17:27:00,
2013-01-13 12:32:00,73.3,62.9,30.07,SW,227,2.0,7.0,70,0.00,,---,0.00,VWS V14.00,2013-01-13 17:32:00,
2013-01-13 12:37:00,73.3,62.9,30.07,SSW,209,4.0,7.0,70,0.00,,---,0.00,VWS V14.00,2013-01-13 17:37:00,
2013-01-13 12:42:00,73.4,63.0,30.07,West,262,5.0,7.0,70,0.00,,---,0.00,VWS V14.00,2013-01-13 17:42:00,
2013-01-13 12:47:00,73.4,63.0,30.06,WSW,250,2.0,10.0,70,0.00,,---,0.00,VWS V14.00,2013-01-13 17:47:00,
2013-01-13 12:52:00,73.5,63.1,30.06,WSW,248,1.0,10.0,70,0.00,,---,0.00,VWS V14.00,2013-01-13 17:52:00,
2013-01-13 12:57:00,73.6,63.2,30.06,WSW,253,2.0,10.0,70,0.00,,---,0.00,VWS V14.00,2013-01-13 17:57:00,
2013-01-13 13:01:00,74.1,63.7,30.05,North,355,4.0,6.0,70,0.00,,---,0.00,VWS V14.00,2013-01-13 18:01:00,
2013-01-13 13:06:00,74.6,63.3,30.05,SW,232,4.0,6.0,68,0.00,,---,0.00,VWS V14.00,2013-01-13 18:06:00,
2013-01-13 13:11:00,74.8,63.5,30.05,WSW,254,1.0,8.0,68,0.00,,---,0.00,VWS V14.00,2013-01-13 18:11:00,
2013-01-13 13:16:00,74.9,63.6,30.05,West,265,1.0,8.0,68,0.00,,---,0.00,VWS V14.00,2013-01-13 18:16:00,
2013-01-13 13:21:00,74.8,63.5,30.05,West,269,2.0,8.0,68,0.00,,---,0.00,VWS V14.00,2013-01-13 18:21:00,
2013-01-13 13:26:00,74.8,63.5,30.05,WSW,257,2.0,8.0,68,0.00,,---,0.00,VWS V14.00,2013-01-13 18:26:00,
2013-01-13 13:31:00,75.0,63.7,30.04,WSW,244,2.0,5.0,68,0.00,,---,0.00,VWS V14.00,2013-01-13 18:31:00,
2013-01-13 13:36:00,75.3,64.0,30.04,WSW,248,3.0,7.0,68,0.00,,---,0.00,VWS V14.00,2013-01-13 18:36:00,
2013-01-13 13:41:00,75.7,64.0,30.04,SW,231,2.0,7.0,67,0.00,,---,0.00,VWS V14.00,2013-01-13 18:41:00,
2013-01-13 13:46:00,75.7,63.5,30.04,West,270,2.0,7.0,66,0.00,,---,0.00,VWS V14.00,2013-01-13 18:46:00,
2013-01-13 13:51:00,75.4,63.7,30.04,WSW,244,3.0,8.0,67,0.00,,---,0.00,VWS V14.00,2013-01-13 18:51:00,
2013-01-13 13:56:00,75.3,63.6,30.04,SW,234,1.0,8.0,67,0.00,,---,0.00,VWS V14.00,2013-01-13 18:56:00,
2013-01-13 14:01:00,75.2,63.9,30.03,WSW,250,3.0,6.0,68,0.00,,---,0.00,VWS V14.00,2013-01-13 19:01:00,
2013-01-13 14:06:00,75.1,63.4,30.03,WSW,250,2.0,6.0,67,0.00,,---,0.00,VWS V14.00,2013-01-13 19:06:00,
2013-01-13 14:11:00,75.1,63.8,30.03,West,259,3.0,6.0,68,0.00,,---,0.00,VWS V14.00,2013-01-13 19:11:00,
2013-01-13 14:16:00,75.6,63.9,30.03,WSW,251,2.0,6.0,67,0.00,,---,0.00,VWS V14.00,2013-01-13 19:16:00,
2013-01-13 14:21:00,75.7,63.5,30.03,West,278,1.0,7.0,66,0.00,,---,0.00,VWS V14.00,2013-01-13 19:21:00,
2013-01-13 14:26:00,75.6,63.9,30.03,WSW,240,3.0,7.0,67,0.00,,---,0.00,VWS V14.00,2013-01-13 19:26:00,
2013-01-13 14:31:00,75.7,64.0,30.03,WSW,238,2.0,4.0,67,0.00,,---,0.00,VWS V14.00,2013-01-13 19:31:00,
2013-01-13 14:36:00,75.8,63.6,30.03,WSW,243,1.0,5.0,66,0.00,,---,0.00,VWS V14.00,2013-01-13 19:36:00,
2013-01-13 14:41:00,76.0,63.8,30.04,WSW,252,4.0,6.0,66,0.00,,---,0.00,VWS V14.00,2013-01-13 19:41:00,
2013-01-13 14:46:00,75.9,63.7,30.04,West,265,0.0,6.0,66,0.00,,---,0.00,VWS V14.00,2013-01-13 19:46:00,
2013-01-13 14:51:00,75.7,64.0,30.03,West,265,1.0,6.0,67,0.00,,---,0.00,VWS V14.00,2013-01-13 19:51:00,
2013-01-13 14:56:00,75.9,63.7,30.04,WSW,256,1.0,6.0,66,0.00,,---,0.00,VWS V14.00,2013-01-13 19:56:00,
2013-01-13 15:01:00,76.3,64.1,30.04,SW,236,2.0,6.0,66,0.00,,---,0.00,VWS V14.00,2013-01-13 20:01:00,
2013-01-13 15:06:00,76.3,63.7,30.04,WSW,249,3.0,6.0,65,0.00,,---,0.00,VWS V14.00,2013-01-13 20:06:00,
2013-01-13 15:11:00,76.1,63.9,30.03,WSW,258,1.0,7.0,66,0.00,,---,0.00,VWS V14.00,2013-01-13 20:11:00,
2013-01-13 15:16:00,76.4,63.8,30.04,SW,217,2.0,7.0,65,0.00,,---,0.00,VWS V14.00,2013-01-13 20:16:00,
2013-01-13 15:21:00,76.6,62.6,30.04,West,265,3.0,8.0,62,0.00,,---,0.00,VWS V14.00,2013-01-13 20:21:00,
2013-01-13 15:26:00,76.4,62.9,30.04,West,265,4.0,11.0,63,0.00,,---,0.00,VWS V14.00,2013-01-13 20:26:00,
2013-01-13 15:31:00,76.2,62.7,30.04,WSW,239,2.0,5.0,63,0.00,,---,0.00,VWS V14.00,2013-01-13 20:31:00,
2013-01-13 15:36:00,76.2,62.7,30.04,WSW,248,1.0,5.0,63,0.00,,---,0.00,VWS V14.00,2013-01-13 20:36:00,
2013-01-13 15:41:00,76.0,62.5,30.05,West,263,4.0,7.0,63,0.00,,---,0.00,VWS V14.00,2013-01-13 20:41:00,
2013-01-13 15:46:00,75.8,62.3,30.04,SW,234,4.0,7.0,63,0.00,,---,0.00,VWS V14.00,2013-01-13 20:46:00,
2013-01-13 15:51:00,75.6,62.1,30.04,SW,233,4.0,7.0,63,0.00,,---,0.00,VWS V14.00,2013-01-13 20:51:00,
2013-01-13 15:56:00,75.5,62.5,30.04,SSW,211,1.0,7.0,64,0.00,,---,0.00,VWS V14.00,2013-01-13 20:56:00,
2013-01-13 16:01:00,75.4,62.4,30.04,SW,218,1.0,4.0,64,0.00,,---,0.00,VWS V14.00,2013-01-13 21:01:00,
2013-01-13 16:06:00,75.3,62.3,30.04,SW,215,0.0,5.0,64,0.00,,---,0.00,VWS V14.00,2013-01-13 21:06:00,
2013-01-13 16:11:00,75.2,62.6,30.04,SSW,210,1.0,6.0,65,0.00,,---,0.00,VWS V14.00,2013-01-13 21:11:00,
2013-01-13 16:16:00,75.1,62.5,30.04,SW,234,0.0,6.0,65,0.00,,---,0.00,VWS V14.00,2013-01-13 21:16:00,
2013-01-13 16:21:00,75.1,62.5,30.05,SW,235,3.0,6.0,65,0.00,,---,0.00,VWS V14.00,2013-01-13 21:21:00,
2013-01-13 16:26:00,75.2,62.6,30.05,WSW,252,0.0,6.0,65,0.00,,---,0.00,VWS V14.00,2013-01-13 21:26:00,
2013-01-13 16:31:00,75.4,62.8,30.04,SSW,208,0.0,5.0,65,0.00,,---,0.00,VWS V14.00,2013-01-13 21:31:00,
2013-01-13 16:36:00,75.5,62.9,30.04,SW,233,0.0,5.0,65,0.00,,---,0.00,VWS V14.00,2013-01-13 21:36:00,
2013-01-13 16:41:00,75.3,62.7,30.05,WSW,250,1.0,5.0,65,0.00,,---,0.00,VWS V14.00,2013-01-13 21:41:00,
2013-01-13 16:46:00,75.0,62.9,30.04,SW,217,0.0,6.0,66,0.00,,---,0.00,VWS V14.00,2013-01-13 21:46:00,
2013-01-13 16:51:00,74.8,63.1,30.05,SW,217,0.0,6.0,67,0.00,,---,0.00,VWS V14.00,2013-01-13 21:51:00,
2013-01-13 16:56:00,74.5,62.8,30.05,SW,220,2.0,6.0,67,0.00,,---,0.00,VWS V14.00,2013-01-13 21:56:00,
2013-01-13 17:01:00,74.2,63.0,30.05,SSW,207,0.0,4.0,68,0.00,,---,0.00,VWS V14.00,2013-01-13 22:01:00,
2013-01-13 17:06:00,74.0,62.8,30.05,SSW,207,0.0,4.0,68,0.00,,---,0.00,VWS V14.00,2013-01-13 22:06:00,
2013-01-13 17:11:00,73.9,62.7,30.05,SSW,207,0.0,4.0,68,0.00,,---,0.00,VWS V14.00,2013-01-13 22:11:00,
2013-01-13 17:16:00,73.7,62.9,30.05,SSW,207,0.0,4.0,69,0.00,,---,0.00,VWS V14.00,2013-01-13 22:16:00,
2013-01-13 17:21:00,73.5,63.1,30.05,SSW,207,1.0,4.0,70,0.00,,---,0.00,VWS V14.00,2013-01-13 22:21:00,
2013-01-13 17:26:00,73.3,62.9,30.05,SSW,207,0.0,4.0,70,0.00,,---,0.00,VWS V14.00,2013-01-13 22:26:00,
2013-01-13 17:31:00,73.1,62.7,30.05,SSW,207,0.0,0.0,70,0.00,,---,0.00,VWS V14.00,2013-01-13 22:31:00,
2013-01-13 17:36:00,72.8,62.9,30.05,SSW,207,0.0,0.0,71,0.00,,---,0.00,VWS V14.00,2013-01-13 22:36:00,
2013-01-13 17:41:00,72.5,63.0,30.05,SSW,207,0.0,0.0,72,0.00,,---,0.00,VWS V14.00,2013-01-13 22:41:00,
2013-01-13 17:46:00,72.2,62.7,30.05,SSW,207,0.0,0.0,72,0.00,,---,0.00,VWS V14.00,2013-01-13 22:46:00,
2013-01-13 17:51:00,71.8,62.7,30.05,SSW,207,0.0,0.0,73,0.00,,---,0.00,VWS V14.00,2013-01-13 22:51:00,
2013-01-13 17:56:00,71.4,62.7,30.05,SSW,207,0.0,0.0,74,0.00,,---,0.00,VWS V14.00,2013-01-13 22:56:00,
2013-01-13 18:01:00,71.1,62.4,30.05,SSW,207,0.0,0.0,74,0.00,,---,0.00,VWS V14.00,2013-01-13 23:01:00,
2013-01-13 18:06:00,70.8,62.5,30.05,SSW,207,0.0,0.0,75,0.00,,---,0.00,VWS V14.00,2013-01-13 23:06:00,
2013-01-13 18:11:00,70.4,62.5,30.05,SSW,207,0.0,0.0,76,0.00,,---,0.00,VWS V14.00,2013-01-13 23:11:00,
2013-01-13 18:16:00,70.2,62.3,30.05,SSW,207,0.0,0.0,76,0.00,,---,0.00,VWS V14.00,2013-01-13 23:16:00,
2013-01-13 18:21:00,69.9,62.4,30.05,SSW,207,0.0,0.0,77,0.00,,---,0.00,VWS V14.00,2013-01-13 23:21:00,
2013-01-13 18:26:00,69.7,62.2,30.05,SSW,207,0.0,0.0,77,0.00,,---,0.00,VWS V14.00,2013-01-13 23:26:00,
2013-01-13 18:31:00,69.5,62.3,30.06,SSW,207,0.0,0.0,78,0.00,,---,0.00,VWS V14.00,2013-01-13 23:31:00,
2013-01-13 18:36:00,69.4,62.2,30.06,SSW,207,0.0,0.0,78,0.00,,---,0.00,VWS V14.00,2013-01-13 23:36:00,
2013-01-13 18:41:00,69.3,62.2,30.05,SSW,207,0.0,0.0,78,0.00,,---,0.00,VWS V14.00,2013-01-13 23:41:00,
2013-01-13 18:46:00,69.2,62.1,30.05,SSW,207,0.0,0.0,78,0.00,,---,0.00,VWS V14.00,2013-01-13 23:46:00,
2013-01-13 18:51:00,69.0,61.9,30.05,SSW,207,0.0,0.0,78,0.00,,---,0.00,VWS V14.00,2013-01-13 23:51:00,
2013-01-13 18:56:00,68.9,62.1,30.05,SSW,207,0.0,0.0,79,0.00,,---,0.00,VWS V14.00,2013-01-13 23:56:00,
2013-01-13 19:01:00,68.8,62.0,30.05,SSW,207,0.0,0.0,79,0.00,,---,0.00,VWS V14.00,2013-01-14 00:01:00,
2013-01-13 19:06:00,68.6,61.8,30.05,SSW,207,0.0,0.0,79,0.00,,---,0.00,VWS V14.00,2013-01-14 00:06:00,
2013-01-13 19:11:00,68.5,62.1,30.05,SSW,207,0.0,0.0,80,0.00,,---,0.00,VWS V14.00,2013-01-14 00:11:00,
2013-01-13 19:16:00,68.3,61.9,30.05,SSW,207,0.0,0.0,80,0.00,,---,0.00,VWS V14.00,2013-01-14 00:16:00,
2013-01-13 19:21:00,68.3,61.9,30.05,SSW,207,0.0,0.0,80,0.00,,---,0.00,VWS V14.00,2013-01-14 00:21:00,
2013-01-13 19:26:00,68.2,62.2,30.05,SSW,207,0.0,0.0,81,0.00,,---,0.00,VWS V14.00,2013-01-14 00:26:00,
2013-01-13 19:31:00,68.1,61.7,30.05,SSW,207,0.0,0.0,80,0.00,,---,0.00,VWS V14.00,2013-01-14 00:31:00,
2013-01-13 19:36:00,68.0,61.6,30.05,SSW,207,0.0,0.0,80,0.00,,---,0.00,VWS V14.00,2013-01-14 00:36:00,
2013-01-13 19:41:00,67.9,61.5,30.05,SSW,207,0.0,1.0,80,0.00,,---,0.00,VWS V14.00,2013-01-14 00:41:00,
2013-01-13 19:46:00,68.0,61.6,30.05,SSW,208,1.0,1.0,80,0.00,,---,0.00,VWS V14.00,2013-01-14 00:46:00,
2013-01-13 19:51:00,68.1,61.7,30.05,SSW,207,1.0,4.0,80,0.00,,---,0.00,VWS V14.00,2013-01-14 00:51:00,
2013-01-13 19:56:00,68.3,61.5,30.05,SSW,208,1.0,4.0,79,0.00,,---,0.00,VWS V14.00,2013-01-14 00:56:00,
2013-01-13 20:01:00,68.5,61.7,30.05,SSW,208,0.0,1.0,79,0.00,,---,0.00,VWS V14.00,2013-01-14 01:01:00,
2013-01-13 20:06:00,68.5,61.7,30.06,SSW,208,0.0,1.0,79,0.00,,---,0.00,VWS V14.00,2013-01-14 01:06:00,
2013-01-13 20:11:00,68.3,61.5,30.06,SSW,208,0.0,1.0,79,0.00,,---,0.00,VWS V14.00,2013-01-14 01:11:00,
2013-01-13 20:16:00,68.3,61.5,30.06,SSW,208,0.0,3.0,79,0.00,,---,0.00,VWS V14.00,2013-01-14 01:16:00,
2013-01-13 20:21:00,68.3,61.5,30.06,SSW,208,0.0,3.0,79,0.00,,---,0.00,VWS V14.00,2013-01-14 01:21:00,
2013-01-13 20:26:00,68.4,61.6,30.06,SSW,208,0.0,3.0,79,0.00,,---,0.00,VWS V14.00,2013-01-14 01:26:00,
2013-01-13 20:31:00,68.3,61.5,30.06,SSW,208,0.0,3.0,79,0.00,,---,0.00,VWS V14.00,2013-01-14 01:31:00,
2013-01-13 20:36:00,68.2,61.5,30.06,SSW,208,0.0,3.0,79,0.00,,---,0.00,VWS V14.00,2013-01-14 01:36:00,
2013-01-13 20:41:00,68.1,61.3,30.06,SSW,208,0.0,3.0,79,0.00,,---,0.00,VWS V14.00,2013-01-14 01:41:00,
2013-01-13 20:46:00,67.9,61.2,30.06,SSW,208,0.0,3.0,79,0.00,,---,0.00,VWS V14.00,2013-01-14 01:46:00,
2013-01-13 20:51:00,67.6,61.2,30.06,SSW,208,0.0,3.0,80,0.00,,---,0.00,VWS V14.00,2013-01-14 01:51:00,
2013-01-13 20:56:00,67.4,61.0,30.06,SSW,208,0.0,3.0,80,0.00,,---,0.00,VWS V14.00,2013-01-14 01:56:00,
2013-01-13 21:01:00,67.1,61.1,30.06,SSW,208,1.0,3.0,81,0.00,,---,0.00,VWS V14.00,2013-01-14 02:01:00,
2013-01-13 21:06:00,67.1,61.1,30.06,SSW,208,0.0,3.0,81,0.00,,---,0.00,VWS V14.00,2013-01-14 02:06:00,
2013-01-13 21:11:00,67.0,61.0,30.06,SSW,208,0.0,3.0,81,0.00,,---,0.00,VWS V14.00,2013-01-14 02:11:00,
2013-01-13 21:16:00,66.8,60.8,30.06,SSW,208,0.0,3.0,81,0.00,,---,0.00,VWS V14.00,2013-01-14 02:16:00,
2013-01-13 21:21:00,66.7,61.0,30.06,SSW,207,3.0,4.0,82,0.00,,---,0.00,VWS V14.00,2013-01-14 02:21:00,
2013-01-13 21:26:00,66.7,61.0,30.06,SSW,203,0.0,4.0,82,0.00,,---,0.00,VWS V14.00,2013-01-14 02:26:00,
2013-01-13 21:31:00,66.7,61.0,30.06,SSW,206,0.0,3.0,82,0.00,,---,0.00,VWS V14.00,2013-01-14 02:31:00,
2013-01-13 21:36:00,66.7,61.0,30.06,SSW,209,0.0,4.0,82,0.00,,---,0.00,VWS V14.00,2013-01-14 02:36:00,
2013-01-13 21:41:00,66.7,61.0,30.06,SSW,209,0.0,4.0,82,0.00,,---,0.00,VWS V14.00,2013-01-14 02:41:00,
2013-01-13 21:46:00,66.6,60.9,30.06,SSW,209,0.0,4.0,82,0.00,,---,0.00,VWS V14.00,2013-01-14 02:46:00,
2013-01-13 21:51:00,66.6,60.9,30.06,SSW,209,0.0,4.0,82,0.00,,---,0.00,VWS V14.00,2013-01-14 02:51:00,
2013-01-13 21:56:00,66.6,60.9,30.06,SSW,196,0.0,6.0,82,0.00,,---,0.00,VWS V14.00,2013-01-14 02:56:00,
2013-01-13 22:01:00,66.6,60.9,30.06,SSW,196,3.0,4.0,82,0.00,,---,0.00,VWS V14.00,2013-01-14 03:01:00,
2013-01-13 22:06:00,66.6,60.9,30.06,SSW,194,0.0,4.0,82,0.00,,---,0.00,VWS V14.00,2013-01-14 03:06:00,
2013-01-13 22:11:00,66.5,60.8,30.05,SSW,197,2.0,5.0,82,0.00,,---,0.00,VWS V14.00,2013-01-14 03:11:00,
2013-01-13 22:16:00,66.5,60.8,30.05,SSW,201,2.0,5.0,82,0.00,,---,0.00,VWS V14.00,2013-01-14 03:16:00,
2013-01-13 22:21:00,66.5,60.8,30.05,SW,218,3.0,5.0,82,0.00,,---,0.00,VWS V14.00,2013-01-14 03:21:00,
2013-01-13 22:26:00,66.5,60.8,30.04,SSW,208,0.0,5.0,82,0.00,,---,0.00,VWS V14.00,2013-01-14 03:26:00,
2013-01-13 22:31:00,66.5,60.8,30.04,SSW,204,1.0,7.0,82,0.00,,---,0.00,VWS V14.00,2013-01-14 03:31:00,
2013-01-13 22:36:00,66.5,60.8,30.04,SSW,207,2.0,7.0,82,0.00,,---,0.00,VWS V14.00,2013-01-14 03:36:00,
2013-01-13 22:41:00,66.5,60.8,30.05,SSW,194,0.0,7.0,82,0.00,,---,0.00,VWS V14.00,2013-01-14 03:41:00,
2013-01-13 22:46:00,66.5,60.8,30.05,SSW,200,0.0,7.0,82,0.00,,---,0.00,VWS V14.00,2013-01-14 03:46:00,
2013-01-13 22:51:00,66.5,60.8,30.05,SSW,205,3.0,7.0,82,0.00,,---,0.00,VWS V14.00,2013-01-14 03:51:00,
2013-01-13 22:56:00,66.4,60.7,30.05,SW,223,3.0,7.0,82,0.00,,---,0.00,VWS V14.00,2013-01-14 03:56:00,
2013-01-13 23:01:00,66.5,60.8,30.05,SSW,203,0.0,6.0,82,0.00,,---,0.00,VWS V14.00,2013-01-14 04:01:00,
2013-01-13 23:06:00,66.4,60.7,30.06,SSW,205,0.0,6.0,82,0.00,,---,0.00,VWS V14.00,2013-01-14 04:06:00,
2013-01-13 23:11:00,66.4,60.7,30.06,SW,236,1.0,8.0,82,0.00,,---,0.00,VWS V14.00,2013-01-14 04:11:00,
2013-01-13 23:16:00,66.4,60.7,30.06,SSW,213,3.0,8.0,82,0.00,,---,0.00,VWS V14.00,2013-01-14 04:16:00,
2013-01-13 23:21:00,66.4,60.7,30.06,SW,221,0.0,8.0,82,0.00,,---,0.00,VWS V14.00,2013-01-14 04:21:00,
2013-01-13 23:26:00,66.4,60.7,30.06,South,190,1.0,8.0,82,0.00,,---,0.00,VWS V14.00,2013-01-14 04:26:00,
2013-01-13 23:31:00,66.4,60.7,30.07,SSW,212,2.0,5.0,82,0.00,,---,0.00,VWS V14.00,2013-01-14 04:31:00,
2013-01-13 23:36:00,66.3,60.7,30.06,SSW,201,2.0,5.0,82,0.00,,---,0.00,VWS V14.00,2013-01-14 04:36:00,
2013-01-13 23:41:00,66.4,60.7,30.06,SW,214,8.0,8.0,82,0.00,,---,0.00,VWS V14.00,2013-01-14 04:41:00,
2013-01-13 23:46:00,66.4,60.7,30.06,South,183,5.0,9.0,82,0.00,,---,0.00,VWS V14.00,2013-01-14 04:46:00,
2013-01-13 23:51:00,66.4,60.7,30.06,SSW,205,5.0,9.0,82,0.00,,---,0.00,VWS V14.00,2013-01-14 04:51:00,
2013-01-13 23:56:00,66.4,60.7,30.06,SSW,213,0.0,9.0,82,0.00,,---,0.00,VWS V14.00,2013-01-14 04:56:00,